When you browse on this site, cookies collect data to enhance your experience and personalize the content and advertising you see.
Visit our Privacy Policy to learn more. By continuing to use the site, you agree to this use of cookies and data.

Hourly Weather Bangalol

Today, 16 July, Thursday

Time Temperature Precipitation Wind Pressure Humidity
00:00 +23°C° 0 mm 4 mps 695 mmHg 90%
01:00 +23°C° 0 mm 4 mps 694 mmHg 90%
02:00 +23°C° 0 mm 4 mps 694 mmHg 90%
03:00 +23°C° 0.1 mm 4 mps 693 mmHg 90%
04:00 +24°C° 0.1 mm 3 mps 693 mmHg 90%
05:00 +23°C° 0.1 mm 2 mps 693 mmHg 90%
06:00 +24°C° 0.2 mm 3 mps 694 mmHg 87%
07:00 +25°C° 0.2 mm 4 mps 694 mmHg 85%
08:00 +25°C° 0.2 mm 5 mps 695 mmHg 82%
09:00 +26°C° 1 mm 5 mps 695 mmHg 79%
10:00 +27°C° 1 mm 6 mps 695 mmHg 77%
11:00 +28°C° 1 mm 6 mps 695 mmHg 74%
12:00 +28°C° 1.2 mm 6 mps 694 mmHg 74%
13:00 +27°C° 1.2 mm 6 mps 694 mmHg 74%
14:00 +27°C° 1.2 mm 7 mps 693 mmHg 74%
15:00 +26°C° 1.7 mm 6 mps 693 mmHg 79%
16:00 +25°C° 1.7 mm 5 mps 693 mmHg 84%
17:00 +23°C° 1.7 mm 4 mps 693 mmHg 89%
18:00 +23°C° 0.5 mm 4 mps 693 mmHg 89%
19:00 +24°C° 0.5 mm 3 mps 694 mmHg 89%
20:00 +24°C° 0.5 mm 3 mps 695 mmHg 88%
21:00 +24°C° 0 mm 3 mps 695 mmHg 89%
22:00 +24°C° 0 mm 3 mps 695 mmHg 90%
23:00 +24°C° 0 mm 3 mps 695 mmHg 91%

Tomorrow, 17 July, Friday

Time Temperature Precipitation Wind Pressure Humidity
00:00 +22°C° 0 mm 3 mps 694 mmHg 91%
01:00 +22°C° 0 mm 3 mps 694 mmHg 92%
02:00 +22°C° 0 mm 4 mps 694 mmHg 92%
03:00 +22°C° 0 mm 3 mps 693 mmHg 92%
04:00 +22°C° 0 mm 3 mps 693 mmHg 92%
05:00 +23°C° 0 mm 2 mps 693 mmHg 92%
06:00 +24°C° 0 mm 3 mps 694 mmHg 88%
07:00 +23°C° 0 mm 4 mps 695 mmHg 85%
08:00 +25°C° 0 mm 5 mps 695 mmHg 82%
09:00 +26°C° 0.1 mm 5 mps 695 mmHg 77%
10:00 +28°C° 0.1 mm 6 mps 695 mmHg 73%
11:00 +29°C° 0.1 mm 6 mps 695 mmHg 68%
12:00 +29°C° 0.6 mm 6 mps 695 mmHg 66%
13:00 +30°C° 0.6 mm 7 mps 694 mmHg 65%
14:00 +30°C° 0.6 mm 7 mps 694 mmHg 63%
15:00 +29°C° 0.8 mm 6 mps 694 mmHg 66%
16:00 +28°C° 0.8 mm 6 mps 694 mmHg 69%
17:00 +27°C° 0.8 mm 6 mps 694 mmHg 72%
18:00 +27°C° 0.1 mm 5 mps 694 mmHg 76%
19:00 +26°C° 0.1 mm 4 mps 695 mmHg 80%
20:00 +25°C° 0.1 mm 4 mps 695 mmHg 83%
21:00 +25°C° 0 mm 3 mps 695 mmHg 85%
22:00 +24°C° 0 mm 3 mps 695 mmHg 86%
23:00 +24°C° 0 mm 2 mps 695 mmHg 87%

Day after tomorrow, 18 July, Saturday

Time Temperature Precipitation Wind Pressure Humidity
00:00 +24°C° 0 mm 3 mps 695 mmHg 87%
01:00 +24°C° 0 mm 3 mps 694 mmHg 87%
02:00 +24°C° 0 mm 3 mps 694 mmHg 88%
03:00 +24°C° 0 mm 3 mps 694 mmHg 88%
04:00 +24°C° 0 mm 3 mps 694 mmHg 88%
05:00 +23°C° 0 mm 2 mps 694 mmHg 89%
06:00 +24°C° 0 mm 3 mps 695 mmHg 87%
07:00 +25°C° 0 mm 3 mps 695 mmHg 84%
08:00 +25°C° 0 mm 3 mps 696 mmHg 82%
09:00 +26°C° 0 mm 4 mps 696 mmHg 77%
10:00 +28°C° 0 mm 4 mps 696 mmHg 72%
11:00 +29°C° 0 mm 4 mps 696 mmHg 68%
12:00 +29°C° 1 mm 4 mps 696 mmHg 66%
13:00 +29°C° 1 mm 3 mps 695 mmHg 65%
14:00 +30°C° 1 mm 3 mps 695 mmHg 64%
15:00 +29°C° 2.3 mm 3 mps 694 mmHg 70%
16:00 +28°C° 2.3 mm 3 mps 694 mmHg 76%
17:00 +26°C° 2.3 mm 3 mps 694 mmHg 82%
18:00 +26°C° 2.3 mm 3 mps 695 mmHg 84%
19:00 +25°C° 2.3 mm 3 mps 695 mmHg 86%
20:00 +25°C° 2.3 mm 4 mps 696 mmHg 88%
21:00 +24°C° 3 mm 3 mps 696 mmHg 90%
22:00 +24°C° 3 mm 3 mps 696 mmHg 92%
23:00 +24°C° 3 mm 2 mps 696 mmHg 94%

19 July, Sunday

Time Temperature Precipitation Wind Pressure Humidity
00:00 +23°C° 3.5 mm 2 mps 696 mmHg 95%
01:00 +23°C° 3.5 mm 2 mps 695 mmHg 95%
02:00 +23°C° 3.5 mm 2 mps 695 mmHg 96%
03:00 +23°C° 1.8 mm 2 mps 695 mmHg 96%
04:00 +23°C° 1.8 mm 2 mps 695 mmHg 96%
05:00 +22°C° 1.8 mm 3 mps 695 mmHg 96%
06:00 +22°C° 0.2 mm 3 mps 695 mmHg 94%
07:00 +24°C° 0.2 mm 3 mps 696 mmHg 93%
08:00 +24°C° 0.2 mm 3 mps 696 mmHg 92%
09:00 +25°C° 0 mm 3 mps 696 mmHg 88%
10:00 +25°C° 0 mm 3 mps 696 mmHg 84%
11:00 +26°C° 0 mm 4 mps 696 mmHg 80%
12:00 +27°C° 0.1 mm 4 mps 696 mmHg 77%
13:00 +28°C° 0.1 mm 4 mps 695 mmHg 74%
14:00 +29°C° 0.1 mm 4 mps 695 mmHg 71%
15:00 +28°C° 0.2 mm 3 mps 695 mmHg 72%
16:00 +28°C° 0.2 mm 3 mps 695 mmHg 73%
17:00 +28°C° 0.2 mm 3 mps 694 mmHg 74%
18:00 +27°C° 0.2 mm 3 mps 695 mmHg 78%
19:00 +26°C° 0.2 mm 3 mps 695 mmHg 82%
20:00 +25°C° 0.2 mm 3 mps 696 mmHg 86%
21:00 +25°C° 0.4 mm 3 mps 696 mmHg 87%
22:00 +25°C° 0.4 mm 3 mps 696 mmHg 88%
23:00 +24°C° 0.4 mm 2 mps 696 mmHg 88%

20 July, Monday

Time Temperature Precipitation Wind Pressure Humidity
00:00 +24°C° 0.2 mm 2 mps 696 mmHg 89%
01:00 +24°C° 0.2 mm 2 mps 695 mmHg 90%
02:00 +24°C° 0.2 mm 1 mps 695 mmHg 91%
03:00 +24°C° 0 mm 1 mps 695 mmHg 92%
04:00 +23°C° 0 mm 1 mps 695 mmHg 93%
05:00 +23°C° 0 mm 1 mps 694 mmHg 93%
06:00 +24°C° 0 mm 1 mps 695 mmHg 90%
07:00 +25°C° 0 mm 2 mps 695 mmHg 86%
08:00 +25°C° 0 mm 2 mps 696 mmHg 83%
09:00 +26°C° 0 mm 2 mps 696 mmHg 79%
10:00 +27°C° 0 mm 2 mps 696 mmHg 76%
11:00 +28°C° 0 mm 2 mps 696 mmHg 72%
12:00 +29°C° 0 mm 2 mps 695 mmHg 68%
13:00 +30°C° 0 mm 2 mps 694 mmHg 64%
14:00 +30°C° 0 mm 1 mps 694 mmHg 61%
15:00 +30°C° 0.2 mm 1 mps 694 mmHg 60%
16:00 +30°C° 0.2 mm 1 mps 693 mmHg 59%
17:00 +28°C° 0.2 mm 0 mps 693 mmHg 58%
18:00 +29°C° 2.2 mm 1 mps 694 mmHg 66%
19:00 +28°C° 2.2 mm 1 mps 694 mmHg 74%
20:00 +26°C° 2.2 mm 2 mps 695 mmHg 82%
21:00 +26°C° 2.5 mm 2 mps 695 mmHg 82%
22:00 +26°C° 2.5 mm 2 mps 695 mmHg 83%
23:00 +26°C° 2.5 mm 2 mps 695 mmHg 83%

21 July, Tuesday

Time Temperature Precipitation Wind Pressure Humidity
00:00 +25°C° 1.4 mm 2 mps 695 mmHg 85%
01:00 +25°C° 1.4 mm 2 mps 694 mmHg 86%
02:00 +25°C° 1.4 mm 2 mps 694 mmHg 88%
03:00 +24°C° 0.2 mm 2 mps 694 mmHg 89%
04:00 +24°C° 0.2 mm 2 mps 694 mmHg 90%
05:00 +24°C° 0.2 mm 1 mps 694 mmHg 91%
06:00 +24°C° 0 mm 1 mps 694 mmHg 87%
07:00 +25°C° 0 mm 1 mps 694 mmHg 83%
08:00 +26°C° 0 mm 1 mps 695 mmHg 79%
09:00 +27°C° 0 mm 1 mps 695 mmHg 75%
10:00 +28°C° 0 mm 2 mps 695 mmHg 71%
11:00 +29°C° 0 mm 2 mps 695 mmHg 67%
12:00 +29°C° 0.3 mm 2 mps 694 mmHg 65%
13:00 +30°C° 0.3 mm 1 mps 694 mmHg 63%
14:00 +31°C° 0.3 mm 1 mps 693 mmHg 61%
15:00 +30°C° 1.3 mm 1 mps 693 mmHg 63%
16:00 +28°C° 1.3 mm 0 mps 693 mmHg 65%
17:00 +27°C° 1.3 mm 0 mps 693 mmHg 68%
18:00 +26°C° 2.1 mm 0 mps 693 mmHg 72%
19:00 +26°C° 2.1 mm 0 mps 694 mmHg 77%
20:00 +27°C° 2.1 mm 1 mps 694 mmHg 81%
21:00 +25°C° 0.7 mm 0 mps 694 mmHg 81%
22:00 +24°C° 0.7 mm 0 mps 695 mmHg 81%
23:00 +24°C° 0.7 mm 0 mps 695 mmHg 80%
Show more